TimeCST,TemperatureF,Dew PointF,Humidity,Sea Level PressureIn,VisibilityMPH,Wind Direction,Wind SpeedMPH,Gust SpeedMPH,PrecipitationIn,Events,Conditions,WindDirDegrees,DateUTC
12:53 AM,43.0,33.1,68,29.88,10.0,WNW,6.9,-,N/A,,Clear,290,2012-01-11 06:53:00
1:53 AM,44.1,33.1,65,29.86,10.0,WNW,9.2,-,N/A,,Clear,290,2012-01-11 07:53:00
2:53 AM,44.1,33.1,65,29.86,10.0,West,8.1,-,N/A,,Clear,280,2012-01-11 08:53:00
5:53 AM,41.0,33.1,73,29.84,10.0,West,6.9,-,N/A,,Clear,280,2012-01-11 11:53:00
6:53 AM,42.1,33.1,70,29.85,10.0,West,6.9,-,N/A,,Clear,280,2012-01-11 12:53:00
7:53 AM,43.0,34.0,71,29.85,10.0,WSW,4.6,-,N/A,,Clear,250,2012-01-11 13:53:00
8:53 AM,46.9,36.0,66,29.85,10.0,SW,4.6,-,N/A,,Clear,230,2012-01-11 14:53:00
9:53 AM,54.0,39.0,57,29.85,10.0,Calm,Calm,-,N/A,,Clear,0,2012-01-11 15:53:00
10:53 AM,60.1,37.0,42,29.82,10.0,SW,5.8,-,N/A,,Clear,230,2012-01-11 16:53:00
11:53 AM,64.0,37.0,37,29.77,10.0,West,8.1,-,N/A,,Clear,260,2012-01-11 17:53:00
12:53 PM,68.0,37.9,33,29.72,10.0,SSW,11.5,17.3,N/A,,Clear,210,2012-01-11 18:53:00
1:53 PM,73.0,32.0,22,29.68,10.0,WSW,17.3,24.2,N/A,,Clear,240,2012-01-11 19:53:00
2:53 PM,75.0,30.9,20,29.65,10.0,West,11.5,20.7,N/A,,Clear,260,2012-01-11 20:53:00
3:53 PM,75.0,30.0,19,29.65,10.0,West,13.8,27.6,N/A,,Clear,260,2012-01-11 21:53:00
4:53 PM,73.0,33.1,23,29.67,10.0,West,11.5,18.4,N/A,,Clear,260,2012-01-11 22:53:00
5:53 PM,66.9,33.1,28,29.72,10.0,NW,15.0,25.3,N/A,,Clear,310,2012-01-11 23:53:00
6:53 PM,63.0,35.1,35,29.76,10.0,NW,12.7,24.2,N/A,,Clear,310,2012-01-12 00:53:00
7:53 PM,57.0,32.0,39,29.82,10.0,NW,25.3,36.8,N/A,,Clear,320,2012-01-12 01:53:00
8:53 PM,54.0,36.0,51,29.88,10.0,NNW,18.4,34.5,N/A,,Clear,340,2012-01-12 02:53:00
9:53 PM,50.0,36.0,59,29.93,10.0,NNW,17.3,21.9,N/A,,Clear,330,2012-01-12 03:53:00
10:53 PM,46.9,34.0,61,29.97,10.0,North,17.3,28.8,N/A,,Clear,350,2012-01-12 04:53:00
11:53 PM,45.0,32.0,60,29.99,10.0,NNW,11.5,23.0,N/A,,Clear,340,2012-01-12 05:53:00